Location: Arrodets-la-Barthe
(43.0306°N, 0.2829°E)
Time: 00:46:34
(UTC+00:00)

Cosmos 2344 - Pass Details

Date: 01 June 2022
Orbit: 1228 x 3015 km, 63.3° (Epoch: 04 July)

Event Time Altitude Azimuth Distance (km) Brightness Sun altitude
Rises 21:40:04 0° 259° (W) 4,208 6.6 -17.6°
Reaches altitude 10° 21:43:17 10° 271° (W) 3,194 6.1 -17.9°
Maximum altitude 21:49:32 29° 330° (NNW) 2,139 5.5 -18.5°
Drops below altitude 10° 21:56:19 10° 29° (NNE) 3,469 6.3 -19.2°
Sets 22:00:01 0° 41° (NE) 4,639 6.8 -19.5°
